Flag for Argentina Weather past 2 weeks in Buenos Aires, Argentina

Now
81 °F

Passing clouds.


Feels Like: 83 °F
Forecast: N/A
Wind: 10 mph from East

Location: Buenos Aires Airport

Current Time: Oct 23, 2014 at 6:00:59 PM

Latest Report: Oct 23, 2014 at 5:00 PM


Visibility: N/A

Pressure: 29.92 "Hg

Humidity: 62%

Dew point: 66 °F

Location of Buenos AiresLocation

Historic Weather in Buenos Aires — Graph

°F

Buenos Aires temperature yesterday

Maximum temperature yesterday: 84 °F (at 4:00 PM)
Minimum temperature yesterday: 68 °F (at 4:00 AM)
Average temperature yesterday: 75 °F

Past Weeks' High & Low Weather Summary

 TemperatureHumidityPressure
High84 °F (Oct 22, 4:00 PM)94% (Oct 9, 3:00 AM)30.21 "Hg (Oct 9, 3:00 AM)
Low50 °F (Oct 10, 6:00 AM)22% (Oct 19, 4:00 PM)29.56 "Hg (Oct 9, 4:00 AM)
Average68 °F66%29.95 "Hg
* Reported Oct 8 5:00 PM — Oct 23 5:00 PM, Buenos Aires, Weather by CustomWeather, © 2014

Note: Actual official high and low records may vary slightly from our data, if they occured in-between our weather recording intervals... More about our weather records

Advertising

Buenos Aires weather history for previous 24 hours

 ConditionsComfort  
Time TempWeatherWind HumidityBarometerVisibility
5:00 PM
Oct 23
81 °FPassing clouds.10 mph62%29.92 "HgN/A
4:00 PM81 °FPassing clouds.7 mph62%29.95 "HgN/A
3:00 PM79 °FPassing clouds.8 mph61%29.98 "HgN/A
2:00 PM79 °FPassing clouds.9 mph61%29.98 "HgN/A
1:00 PM77 °FPassing clouds.9 mph69%30.01 "HgN/A
12:00 PM77 °FPassing clouds.6 mph61%30.01 "HgN/A
11:00 AM75 °FPassing clouds.6 mph65%30.04 "HgN/A
10:00 AM75 °FPassing clouds.7 mph61%30.04 "HgN/A
9:00 AM73 °FSunny.7 mph61%30.04 "Hg10 mi
8:00 AM72 °FSunny.8 mph65%30.04 "Hg10 mi
7:00 AM70 °FSunny.8 mph73%30.01 "Hg10 mi
6:00 AM70 °FSunny.7 mph73%30.01 "Hg10 mi
5:00 AM70 °FClear.6 mph69%29.98 "Hg10 mi
4:00 AM72 °FClear.6 mph65%29.98 "Hg10 mi
3:00 AM72 °FClear.6 mph61%29.98 "Hg10 mi
2:00 AM73 °FClear.5 mph61%30.01 "Hg10 mi
1:00 AM73 °FClear.8 mph65%30.01 "Hg10 mi
12:00 AM75 °FClear.9 mph78%30.01 "Hg10 mi
11:00 PM
Oct 22
75 °FClear.6 mph65%30.01 "Hg10 mi
10:00 PM77 °FClear.3 mph61%30.01 "Hg10 mi
9:00 PM77 °FClear.3 mph57%30.01 "Hg10 mi
8:00 PM77 °FPassing clouds.2 mph61%29.98 "HgN/A
7:00 PM79 °FClear.8 mph65%29.98 "Hg10 mi
6:00 PM82 °FSunny.8 mph51%29.98 "Hg10 mi
Weather by CustomWeather, © 2014

See weather overviewHow to use our weather pages